Notices

What's New in latest Release from April 7th, 2021:

- Updated Glossary, including Speed of Maximum Gust, and Total Hourly Precipitation

- Updated national and regional climate services offices contacts and prices information

- Addition of station inventory lists for 1981-2010, 1971-2000, and 1961-1990 Normals.

If you haven't already, please take our survey and provide feedback about our website: https://eccc.sondage-survey.ca/f/LanguageSelection.aspx?s=442ca660-fcf1-47c0-95a9-59707d6fd709

Hourly Data Report for July 10, 2018

OTTAWA INTL A
ONTARIO
Current Station Operator: NAVCAN

45°19'00.000" N
75°40'00.000" W
114.90 m
6106001
71628
YOW

Download Data

Hourly Data (July 2018)
Hourly Data Report for July 10, 2018
TIME
LST
Temp Definition
°C
Dew Point Definition
°C
Rel Hum Definition
%
Precip. Amount Definition
mm

Wind Dir Definition
10's deg

Wind Spd Definition
km/h
Visibility Definition
km
Stn Press Definition
kPa
Hmdx Definition


Wind Chill Definition


Weather Definition


00:00 21.1 15.7 71   22 10 24.1 99.97 26   LegendNANA
01:00 20.8 15.7 72   20 8 24.1 99.96 25   Mainly Clear
02:00 19.4 15.5 78   23 7 24.1 99.92     LegendNANA
03:00 18.9 15.1 78   22 11 24.1 99.91     LegendNANA
04:00 18.0 14.2 78   25 8 24.1 99.92     Mainly Clear
05:00 19.5 14.0 70   30 11 24.1 99.91     LegendNANA
06:00 20.7 14.9 69   28 6 24.1 99.96 25   LegendNANA
07:00 23.1 16.8 67   30 11 24.1 99.98 28   Mainly Clear
08:00 24.4 17.1 64   31 12 24.1 99.99 30   LegendNANA
09:00 26.2 18.0 60   33 10 24.1 99.95 32   LegendNANA
10:00 26.9 18.0 58   35 4 24.1 99.93 33   Mostly Cloudy
11:00 27.5 17.7 55   32 22 24.1 99.95 33   LegendNANA
12:00 28.0 15.5 46   33 18 24.1 99.95 32   LegendNANA
13:00 28.7 14.0 40   34 23 24.1 99.94 32   Mostly Cloudy
14:00 28.3 11.9 35   33 30 24.1 99.92 31   LegendNANA
15:00 26.9 12.0 39   34 18 24.1 99.95 29   LegendNANA
16:00 27.7 11.4 36   34 20 24.1 99.98 30   Mostly Cloudy
17:00 26.9 10.7 36   36 23 24.1 99.97 29   LegendNANA
18:00 26.1 10.3 36   35 21 24.1 100.01 28   LegendNANA
19:00 23.5 9.4 40   35 27 24.1 100.10 25   Mainly Clear
20:00 22.3 8.4 41   1 15 24.1 100.15     LegendNANA
21:00 21.5 8.6 43   35 7 24.1 100.23     LegendNANA
22:00 20.2 8.9 48   35 9 24.1 100.27     Clear
23:00 19.5 9.7 53   34 13 24.1 100.29     LegendNANA

Notes on Data Quality.

Legend

  • E = Estimated
  • M = Missing
  • NA = Not Available*
  • [empty] = Indicates an unobserved value
Date modified: